Погода в Стрелке

Россия / Вологодская область     60°34′05″N   45°02′34″E
В апреле 2022 года жителям России запретили посещать сайт meteo.paraplan.net по решению Генеральной прокуратуры. Аудитория сайта уменьшилась в 10 раз. Владельцы сайта не видят смысла в поддержке погодного сервера в таких условиях. Сайт будет закрыт в октябре.
темп.,
°C
ветер,
м/с
пор.,
м/с
влажн.,
%
обл.,
%
осадки,
мм/ч
давл.,
гПа
погр.,
м
3 октября, пн
пн300:00+10зюз3798100 0.1 1006562
03:00+9з1398100 0.1 1008249
06:00+8ссв2397100 0.0 1010200
09:00+8всв2495100 0.2 1011202
12:00+10в3588100 0.0 1012451
15:00+10всв4995100 1.3 1012442
18:00+10в41195100 0.0 1012483
21:00+11вюв41198100 0.1 1012409
4 октября, вт
вт400:00+11ююв41289100 0.0 1012533
03:00+11ююв4128985 0.0 1014471
06:00+10ююв4109577 0.0 1015477
09:00+11ю4108921 0.0 1017589
12:00+14ююв487320 0.0 1017934
15:00+13ююв4875100 0.0 1018900
18:00+10юв31185100 0.0 1018456
21:00+10юв41189100 0.0 1018534
5 октября, ср
ср500:00+9юв3109596 0.0 1018373
03:00+8юв41097100 0.0 1017404
06:00+8юв4108718 0.0 1017523
09:00+9ююв41188100 0.0 1016609
12:00+11ююв4982100 0.0 1015783
15:00+11ююв4880100 0.0 1015844
18:00+9юв3995100 2.5 1014511
21:00+9юв41192100 3.8 1013699
6 октября, чт
чт600:00+8юв2597100 0.7 1012238
03:00+8ю129678 2.6 101166
06:00+5ююз229624 0.1 101124
09:00+9ююз118349 0.2 1011158
12:00+9ююз1384100 0.1 1011230
15:00+9ююз248276 0.3 1010551
18:00+6ююз24945 0.0 101067
21:00+5ююз39955 0.0 1009220
7 октября, пт
пт700:00+5ю31194100 0.0 1007376
03:00+5ю41293100 1.5 1004684
06:00+6юз41196100 2.3 1003766
09:00+7зюз41190100 2.3 1002659
12:00+8з4118698 0.4 1003858
15:00+9з598125 0.8 10021034
18:00+7з4109054 0.2 1004445
21:00+6з4129531 0.2 1006527